Вернуться в каталог

ONEWEB-0159

АктивенСвязьPO
NORAD 48062·PAYLOAD·🇬🇧 United Kingdom

Запущен Mar 25, 2021 с Vostochny Cosmodrome

Loading…

Ближайшие Пролёты (ближайшие 24 часа)

TLE

СвежийSource: CelesTrak SupGP

Эпоха: Sep 14, 2026, 15:28 UTC

1 48062C 21025W   26257.64494630 -.00000826  00000+0 -22649-2 0  2577
2 48062  87.8927 302.4245 0001665  95.1107   6.6271 13.13472475    14

Отслеживайте ONEWEB-0159 в реальном времени с AllMySat

Download on the App Store